Location: Igri�s
(42.2144°N, 0.4320°W)
Time: 09:47:42
(UTC+00:00)

CZ-2C R/B - Pass Details

Date: 13 August 2020
Orbit: 705 x 907 km, 98.1° (Epoch: 18 September)

Event Time Altitude Azimuth Distance (km) Brightness Sun altitude
Rises 19:33:06 0° 181° (S) 3,131 5.9 -5.6°
Reaches altitude 10° 19:35:28 10° 187° (S) 2,196 5.2 -6.0°
Maximum altitude 19:40:03 46° 261° (W) 952 4.0 -6.8°
Drops below altitude 10° 19:44:37 10° 335° (NNW) 2,183 6.2 -7.6°
Sets 19:46:58 0° 341° (NNW) 3,110 6.9 -8.0°
